Theta_e
321 320 319 319 319 318 317 317 317 316 314 313 313 311 308 305 302 301 297 296 294 293 292 292 290 289 290 291 291 291 290 290 292 294 295 295 295 299 312 317 321 324 326 329 328 326 327 327 326 325 325 325 324 323 324 324 324 323 323 322 322 321 320 319 319 319 319 319 320 320 320 320 320 320 320 320 320 320 320 320 320 321 322 322 322
321 319 319 319 318 318 317 317 316 315 315 314 311 311 311 304 301 300 299 297 296 294 294 292 292 291 290 291 291 292 290 290 292 294 294 294 295 298 309 313 317 322 325 328 328 326 327 327 326 326 325 324 324 323 323 323 323 323 323 322 322 321 320 319 318 318 318 319 320 320 320 320 319 319 320 319 319 319 319 319 319 319 319 319 320
322 320 319 319 318 317 317 316 315 314 315 316 312 312 310 309 306 304 302 297 298 295 294 293 292 292 291 291 292 291 291 291 292 293 294 296 296 296 300 309 314 318 321 324 326 328 326 327 328 327 325 324 324 324 324 323 323 323 323 323 322 321 320 319 318 318 318 319 319 319 319 319 319 318 319 319 318 318 319 318 318 319 319 319 319
321 319 319 317 316 316 316 315 315 313 312 312 310 310 309 305 302 300 299 298 298 295 292 292 292 292 290 291 291 291 291 291 291 293 295 296 297 297 297 301 308 314 317 321 325 327 326 326 327 326 326 325 324 324 324 323 322 322 323 323 322 322 321 319 319 318 318 318 319 319 319 319 318 318 318 317 317 317 318 318 318 318 318 318 318
320 319 318 318 316 315 314 314 315 313 311 309 307 305 305 302 299 297 297 296 296 295 293 291 290 291 290 292 291 291 291 291 291 292 295 296 295 295 297 297 297 305 311 315 320 324 326 327 326 327 326 326 325 325 324 323 322 323 323 323 322 321 321 320 319 318 318 319 319 319 318 318 318 317 317 317 317 317 317 317 317 317 317 317 317
320 318 318 317 316 315 315 314 313 312 310 308 306 304 304 302 300 297 299 296 295 294 293 294 291 289 290 290 290 291 290 290 290 292 293 295 295 294 296 296 295 298 300 308 314 319 323 325 326 326 326 326 326 324 325 324 322 322 323 323 322 322 321 320 319 319 319 319 319 318 318 318 317 317 317 316 316 316 316 316 316 316 317 317 317
321 321 317 316 314 313 312 313 309 307 309 307 307 304 304 303 299 300 294 293 292 292 292 293 291 291 291 290 291 291 289 291 290 290 292 294 293 293 296 297 297 298 299 298 304 311 319 323 325 326 327 326 326 325 325 324 323 322 323 324 323 322 321 320 319 319 319 319 318 318 317 317 317 316 316 316 316 316 316 315 316 316 316 316 317
318 316 316 315 315 313 312 309 307 307 307 305 306 304 303 302 299 300 297 295 292 293 289 290 289 290 288 289 290 290 290 289 290 290 291 291 294 293 295 297 297 296 300 298 299 303 313 317 321 324 325 326 326 325 325 325 324 323 323 324 324 322 321 320 319 319 319 319 318 317 317 316 316 316 316 315 315 315 315 315 315 315 316 316 316
315 315 317 315 315 314 312 309 308 308 308 306 306 306 303 302 297 297 300 301 293 293 290 290 290 289 287 287 288 289 289 290 290 290 291 291 292 293 294 295 296 301 297 297 299 298 304 313 317 321 323 323 325 325 325 325 325 323 323 323 324 323 322 320 320 319 318 318 317 317 316 316 316 316 316 315 314 314 314 314 314 315 315 315 315
314 313 314 315 314 314 311 310 309 309 308 307 307 304 303 303 302 296 295 297 295 294 293 290 289 289 289 288 288 287 287 288 289 292 290 290 291 292 294 294 295 296 297 297 296 297 298 305 312 316 314 315 320 324 325 325 325 324 324 323 323 324 322 321 320 319 319 318 317 317 316 316 316 316 316 315 314 314 314 314 314 314 314 314 315
313 312 313 312 312 311 310 309 308 308 307 306 304 302 302 301 303 298 292 294 296 293 293 290 289 288 289 288 286 286 287 287 289 289 288 289 290 293 290 292 294 296 296 294 294 295 298 299 298 299 302 309 316 321 323 325 324 324 323 324 323 323 323 322 320 319 318 318 318 317 316 316 316 316 316 315 314 314 314 314 314 314 314 314 314
311 311 311 309 309 308 307 306 306 306 305 304 303 302 302 300 298 298 295 292 291 291 290 290 289 287 287 288 286 287 287 287 287 287 289 289 289 289 290 291 292 293 293 294 295 295 296 297 296 297 299 303 311 315 320 323 322 323 323 323 323 323 323 321 320 319 318 318 317 316 316 315 315 315 315 314 314 314 314 314 313 314 314 313 313
309 310 309 308 308 306 305 304 305 305 305 304 304 303 301 300 297 296 297 294 293 291 291 291 291 289 285 286 287 286 288 287 287 288 288 288 287 287 289 290 290 290 292 294 294 294 293 295 296 297 298 297 301 307 312 317 316 319 322 323 323 324 323 322 321 319 318 318 317 316 316 315 315 315 314 314 314 314 314 314 314 314 313 313 313
306 307 307 307 306 305 304 304 304 304 303 301 300 299 299 297 296 295 294 295 294 290 290 292 290 290 289 285 283 284 287 287 287 288 288 287 288 288 288 289 289 289 290 292 292 292 293 294 294 295 296 296 297 298 301 304 308 317 321 323 324 324 323 322 321 319 318 318 317 316 316 315 315 315 315 314 314 314 314 314 315 314 313 314 314
304 305 306 305 304 303 302 301 301 301 301 301 300 299 298 298 296 297 296 291 292 291 290 292 293 287 287 287 284 284 285 284 286 287 288 287 288 288 289 288 289 288 288 289 290 291 292 292 292 293 294 295 295 296 298 300 301 306 315 319 320 323 323 322 321 321 319 317 317 316 316 315 315 314 314 314 314 314 314 314 314 314 314 314 314
299 299 300 300 300 300 296 296 296 297 298 299 299 298 297 297 296 296 296 296 292 291 291 292 291 290 290 288 284 281 283 284 283 283 286 288 288 288 288 288 288 287 286 287 288 290 290 290 290 292 293 293 294 294 295 296 299 303 305 308 313 320 322 323 322 321 320 319 317 316 316 315 315 314 314 314 314 314 314 313 313 313 314 314 313
296 297 297 297 296 296 296 295 294 294 295 296 296 296 296 295 295 295 295 296 296 294 291 291 291 292 293 285 286 285 282 282 280 283 281 285 286 287 287 288 288 287 287 287 286 288 289 289 289 289 289 290 291 292 293 294 296 298 301 302 305 312 315 322 323 322 321 320 319 317 316 315 315 315 314 314 314 314 314 314 313 313 314 314 313
293 293 294 294 295 295 294 295 293 291 292 294 293 293 293 293 293 294 294 294 295 295 293 291 291 291 291 290 291 289 286 283 283 284 280 284 284 284 286 287 285 285 286 286 287 287 287 288 288 288 288 288 289 289 291 293 294 295 297 300 308 310 312 315 320 323 322 321 320 319 317 316 316 315 315 314 314 314 314 314 314 313 313 313 313
291 291 291 292 292 293 293 293 293 292 290 291 291 291 292 292 293 293 293 294 293 292 292 293 291 290 291 291 289 287 287 287 287 285 285 281 281 282 285 285 285 285 286 287 287 286 287 287 287 288 287 287 287 287 288 290 295 297 301 304 310 313 313 313 313 317 322 322 321 320 319 317 316 315 315 314 314 314 313 313 313 313 313 313 313
290 290 290 290 290 291 291 292 292 292 291 291 291 291 290 290 291 291 291 291 291 291 292 293 291 291 290 290 290 290 287 286 286 286 285 283 285 282 282 283 284 285 286 287 287 287 287 286 287 287 287 287 287 286 286 287 288 292 296 304 310 313 313 313 313 311 314 318 324 322 320 319 317 316 315 314 314 313 313 313 313 313 313 313 313
289 289 289 289 289 289 290 290 291 291 291 291 290 289 289 289 289 289 289 289 289 290 290 290 290 290 290 289 289 289 289 288 286 286 285 284 284 284 284 281 281 283 285 286 287 287 287 288 288 288 287 287 287 287 287 286 286 287 293 300 307 312 313 313 312 311 311 312 317 320 322 320 319 318 317 315 313 313 313 313 313 313 313 313 313
288 288 288 288 288 288 288 288 289 289 290 290 290 290 290 289 288 287 287 287 288 288 288 288 289 290 290 290 289 287 286 286 285 285 285 285 284 284 285 284 284 285 284 285 286 287 287 288 287 287 287 287 287 287 287 287 287 287 289 295 301 306 310 310 310 311 311 312 313 314 319 321 319 319 318 317 315 314 313 313 313 313 313 313 313
286 286 286 287 287 287 287 287 288 288 288 289 289 289 289 289 288 286 286 286 287 287 287 287 288 288 287 287 288 289 288 287 286 284 285 284 284 284 284 284 284 285 285 285 286 287 287 286 287 286 287 287 287 287 287 287 289 289 292 294 297 300 304 308 309 310 310 311 313 314 315 316 318 318 318 318 317 315 314 313 313 313 312 312 312
285 284 285 285 286 285 286 286 286 286 287 287 288 288 288 288 288 287 287 286 285 285 285 286 286 287 286 287 287 288 289 288 289 289 287 286 286 286 286 286 285 285 283 283 284 285 285 286 287 287 288 287 288 288 287 288 288 291 291 292 296 298 303 306 307 308 309 309 311 313 314 315 316 317 316 316 317 316 315 314 313 313 313 312 312
284 284 284 284 285 284 285 285 285 285 285 286 286 286 286 287 287 287 287 286 286 285 285 285 286 285 286 286 286 287 287 287 288 288 288 287 286 285 285 285 285 286 285 281 284 282 285 286 286 287 287 287 288 287 287 287 287 290 292 290 295 297 299 301 303 306 307 308 310 311 313 314 315 316 316 316 316 317 316 315 314 313 314 313 312
284 284 284 284 285 285 285 285 285 285 285 285 285 285 285 285 285 285 286 286 286 284 284 284 284 284 285 285 285 286 286 286 286 286 286 285 285 284 284 284 285 284 285 282 281 284 285 284 286 287 287 287 287 287 287 287 288 291 292 290 291 295 298 300 302 304 305 308 309 310 309 310 314 315 315 316 316 316 316 315 315 314 314 314 314
284 284 284 284 284 284 284 284 284 285 285 285 285 285 285 285 285 284 285 285 285 284 285 283 285 284 284 284 285 285 285 286 284 285 285 285 285 285 284 283 284 285 284 285 284 283 287 282 284 285 286 287 287 287 287 287 288 290 290 289 289 292 296 299 302 303 303 305 308 310 309 309 311 314 314 313 314 314 316 316 315 314 314 313 313
283 283 283 282 282 282 282 282 282 282 283 283 283 284 284 284 284 284 284 286 285 285 285 284 284 284 283 283 283 283 284 284 285 285 284 285 284 283 283 283 282 281 283 283 285 285 284 284 282 284 285 286 287 287 288 288 288 291 290 288 288 289 294 297 301 303 303 304 306 309 309 309 310 310 312 312 311 311 311 312 312 311 311 311 310
283 283 282 281 281 281 281 281 282 282 281 281 281 281 282 281 281 282 282 284 284 284 285 284 284 283 283 282 283 284 284 284 284 284 283 283 283 283 283 283 284 281 281 281 283 284 284 283 285 282 285 286 286 287 287 287 288 288 288 288 288 288 291 295 299 302 303 304 304 307 309 309 309 310 310 310 311 311 311 311 310 310 311 310 310
281 281 280 279 279 280 280 280 280 279 279 279 279 280 280 280 280 280 281 281 282 282 283 284 284 284 284 283 283 283 283 283 283 283 283 283 283 282 283 283 283 282 282 280 282 284 284 282 282 283 282 284 286 287 286 287 289 289 287 287 287 287 292 294 297 299 302 304 305 305 309 309 309 309 309 310 310 310 310 309 309 309 310 310 311
280 280 279 280 280 280 279 279 278 278 278 278 278 278 278 279 279 280 280 280 280 280 281 282 283 283 283 283 283 283 283 283 283 283 283 282 282 282 282 282 282 282 282 281 280 284 284 285 282 282 283 282 284 285 286 286 288 289 287 287 286 289 291 291 294 296 299 301 303 304 307 309 308 308 308 308 309 309 309 309 308 308 309 309 310
278 278 278 279 279 279 279 279 280 280 279 279 278 278 278 278 278 279 279 278 278 279 280 281 281 281 281 281 282 282 283 282 282 282 283 283 283 282 282 282 282 282 281 281 280 281 284 284 286 282 283 283 283 283 283 285 287 289 286 286 287 289 288 288 291 294 296 298 300 303 305 308 308 308 307 306 308 308 308 307 307 307 307 307 308
278 278 278 277 278 278 278 279 279 279 279 279 279 279 279 279 279 278 279 278 278 279 279 279 280 280 280 280 281 281 281 281 282 282 282 282 283 283 282 281 281 281 281 280 280 281 284 284 285 285 284 282 283 283 283 284 284 285 287 286 286 286 286 286 287 290 294 296 298 300 302 306 308 308 307 306 305 306 306 307 307 305 306 306 306
279 279 279 278 278 278 278 278 278 278 278 278 278 278 278 278 279 280 279 278 278 278 278 278 279 280 280 279 280 280 281 280 281 281 282 282 282 282 282 282 281 281 281 281 281 281 281 284 281 283 282 281 283 281 283 284 284 284 283 284 285 285 286 286 286 286 292 294 296 297 299 302 306 309 308 306 305 305 306 306 305 304 304 305 305
279 278 279 279 279 278 278 278 278 278 278 278 278 278 278 278 278 278 279 278 278 278 278 278 278 279 279 279 279 280 281 280 280 280 281 281 282 281 282 282 281 282 282 282 281 281 281 282 284 283 284 282 283 283 282 284 284 285 284 284 284 285 285 286 285 286 290 293 295 296 298 299 302 306 307 306 305 304 304 304 304 304 303 304 305
278 278 277 278 278 277 278 278 278 278 278 278 278 278 278 278 278 278 278 278 278 277 278 278 278 278 278 278 279 279 279 279 279 280 280 280 280 280 281 281 281 282 282 282 282 281 281 281 282 282 283 282 282 282 282 283 283 283 283 284 284 284 284 285 285 285 288 292 294 295 296 298 300 303 305 305 304 304 303 303 303 303 303 302 303
277 277 278 277 277 277 278 278 278 278 278 278 278 278 278 278 277 277 278 277 278 278 278 278 279 278 278 278 279 279 279 279 279 279 279 279 280 280 280 281 281 281 282 282 282 282 281 281 281 283 283 283 282 282 281 282 282 282 282 283 283 284 284 284 284 286 289 290 292 293 295 296 298 300 303 304 304 304 303 302 302 302 301 302 301
277 277 277 277 278 277 277 278 277 278 278 278 278 278 278 278 277 277 277 277 277 277 278 278 278 278 278 278 278 279 278 278 279 279 279 279 279 279 279 280 280 281 281 281 281 281 281 281 281 281 282 282 282 282 281 281 282 282 282 282 282 282 282 283 283 285 285 285 286 288 291 293 295 297 300 303 303 303 302 302 301 301 300 300 299
276 276 277 277 277 277 277 277 277 277 277 277 277 277 277 277 277 277 277 277 277 277 278 278 278 278 278 278 279 279 279 279 279 279 279 279 279 279 279 280 280 280 280 280 280 280 280 280 281 281 281 282 282 282 282 281 282 283 282 282 281 282 282 282 283 284 284 285 287 289 289 290 292 293 296 299 302 302 302 301 300 300 299 298 298
276 276 276 276 277 276 276 276 277 277 276 277 277 277 277 277 277 277 277 277 277 277 278 278 278 278 279 279 279 279 279 279 279 279 279 279 279 279 279 280 279 279 279 279 280 280 280 280 280 280 281 281 281 280 281 280 280 281 281 281 281 282 282 282 282 283 283 283 283 284 288 290 291 292 295 297 300 301 301 300 299 298 296 297 297
276 276 276 276 276 276 276 276 276 277 277 277 277 277 276 276 276 276 277 277 277 278 278 278 278 279 279 279 279 279 280 281 283 283 283 283 281 279 280 280 279 279 279 279 279 279 279 279 279 280 280 280 281 281 280 278 279 281 283 281 281 282 283 282 282 283 284 283 283 283 283 284 284 286 288 290 294 297 298 298 298 296 296 297 298
274 274 274 274 274 274 274 274 275 275 275 276 278 280 280 279 279 279 279 278 278 278 277 277 278 278 278 279 279 282 282 283 283 284 284 285 285 284 282 281 280 279 279 278 278 279 279 278 279 279 279 279 280 281 281 281 281 281 282 281 281 282 282 281 282 283 283 283 282 281 282 284 283 283 285 286 290 292 295 296 296 296 296 298 298
271 272 272 272 272 272 272 272 272 273 273 274 277 279 280 281 279 277 277 277 277 277 277 277 276 277 277 278 278 280 281 281 281 283 284 284 284 285 285 286 285 282 280 279 278 279 278 278 279 279 279 279 280 281 281 281 281 280 281 282 281 282 281 280 279 282 282 282 281 281 281 283 283 282 283 285 287 289 292 294 296 296 296 298 298
270 270 270 270 271 271 271 271 271 271 271 274 277 277 278 279 279 276 276 276 276 276 276 276 276 276 276 277 277 278 278 279 279 279 281 283 283 284 284 285 285 286 286 283 280 279 279 278 278 279 279 279 280 281 281 281 281 281 280 281 281 281 281 281 281 281 281 283 281 280 281 283 283 282 282 284 285 287 289 293 295 297 298 298 298
268 268 268 268 268 269 269 268 269 269 269 273 274 275 277 277 278 277 274 274 274 274 274 274 275 275 275 276 276 277 277 279 279 278 278 278 281 282 283 284 284 285 286 286 287 284 283 280 279 279 280 280 280 281 282 282 282 281 279 280 280 281 281 281 282 282 280 282 281 280 280 282 282 281 281 283 284 285 287 292 294 295 296 297 297
266 266 266 266 266 266 267 267 267 267 267 269 273 274 275 276 276 276 273 273 273 273 273 273 273 273 274 274 274 275 275 276 276 277 277 277 277 278 278 278 279 280 283 284 284 285 285 284 282 281 282 282 281 282 283 283 282 281 280 280 280 280 281 281 283 283 283 282 281 281 280 281 281 281 280 282 283 284 285 288 292 294 295 296 297
264 263 263 263 264 264 264 264 264 264 264 269 272 273 274 274 275 275 272 272 271 271 271 271 271 272 272 273 273 273 274 274 275 276 276 276 277 277 277 277 278 278 279 279 279 280 281 281 282 283 284 284 284 284 284 284 283 283 283 282 282 282 282 283 283 283 283 282 282 282 279 283 281 280 280 281 282 282 284 288 290 292 293 295 296
262 263 263 263 262 262 262 262 262 262 263 269 270 271 272 273 274 271 270 269 269 269 269 270 270 271 271 271 271 272 272 273 275 278 278 276 276 276 276 276 277 278 278 281 283 283 281 280 281 281 282 284 287 285 285 284 284 284 284 284 283 283 282 281 280 282 282 282 282 281 280 281 281 280 281 281 281 281 282 282 288 291 292 293 294
261 261 261 261 261 261 261 261 261 261 261 265 269 270 271 273 272 268 268 268 268 268 268 269 269 270 270 270 271 271 271 271 275 278 279 279 275 275 275 276 276 277 277 279 282 284 285 285 286 286 286 286 287 288 289 290 287 285 283 282 282 282 281 279 280 281 281 283 281 281 281 280 281 279 281 280 279 280 280 281 282 288 291 292 293
259 260 260 260 260 260 260 260 260 260 261 264 268 269 271 271 271 268 267 267 267 267 268 269 269 270 270 273 273 272 272 272 276 278 279 277 275 275 275 275 275 276 277 279 279 280 283 284 284 285 286 287 287 288 288 289 289 289 285 282 283 283 280 280 279 280 281 283 281 281 280 279 282 280 278 277 279 280 280 280 281 282 288 290 292
259 259 259 259 258 259 259 259 262 261 260 262 267 268 269 270 269 267 267 267 266 266 267 267 268 268 268 270 272 272 271 272 276 277 278 277 275 275 275 275 274 274 276 278 277 277 277 278 279 280 281 283 284 284 285 288 288 288 287 286 286 284 281 281 281 280 279 281 283 282 279 280 281 280 280 277 277 279 280 280 281 280 281 284 287
Wind_Speed
6 5 5 6 5 5 4 4 4 5 5 4 4 4 3 3 3 3 2 2 1 3 3 4 3 3 2 4 3 3 3 3 3 3 3 3 3 3 5 6 7 8 8 10 10 10 10 10 10 8 8 8 8 7 9 9 8 8 7 7 7 7 5 4 4 4 5 5 5 4 5 5 4 3 3 4 4 4 3 4 3 3 3 3 3
5 4 5 5 5 5 5 4 5 4 5 6 6 5 5 3 3 3 3 3 2 3 2 4 4 4 3 4 4 4 3 3 4 4 3 3 3 3 6 6 6 7 8 9 11 11 11 11 12 11 9 9 9 8 9 9 9 9 8 7 8 8 7 5 5 5 5 5 6 7 6 5 5 5 5 5 5 4 4 4 4 4 4 5 5
6 6 5 5 5 6 6 5 5 5 5 6 5 6 5 6 6 5 5 3 4 1 1 4 5 5 4 4 5 3 4 3 3 3 3 4 4 4 4 6 6 6 7 8 9 11 12 12 12 13 10 11 11 10 9 10 9 10 10 9 9 8 6 6 6 6 6 7 6 6 6 6 5 5 4 5 4 5 5 5 5 5 5 5 4
6 6 6 5 5 5 4 5 6 5 4 4 4 4 4 2 2 2 2 2 2 1 1 2 5 6 4 5 4 4 4 4 4 4 4 4 5 4 4 4 5 6 6 7 9 11 11 13 13 12 12 12 11 11 10 9 9 10 10 10 9 8 7 7 6 6 7 7 7 6 6 6 6 5 5 5 5 6 6 6 6 6 5 5 5
4 6 6 6 5 5 4 5 5 5 4 4 3 4 3 3 2 2 1 1 1 3 1 2 4 5 4 5 4 4 4 4 4 3 4 4 4 4 5 4 4 5 6 6 7 8 9 13 13 14 13 13 12 12 12 11 11 11 10 10 10 9 9 8 7 7 8 8 8 7 6 6 5 4 5 6 6 6 7 6 6 5 5 6 5
5 5 5 5 6 6 6 6 6 5 4 4 5 5 5 4 4 3 3 3 4 4 3 5 5 4 5 4 4 5 4 4 4 5 3 4 4 4 5 5 5 4 4 6 7 6 7 7 9 14 14 14 13 12 13 13 12 12 11 12 11 11 10 9 9 8 8 8 9 8 8 7 6 5 6 6 7 7 6 6 7 6 7 7 7
8 9 8 6 5 5 6 7 5 4 5 5 5 5 5 6 5 5 2 3 4 3 3 5 4 6 5 3 5 5 4 5 4 4 4 5 4 4 5 5 5 5 5 4 5 7 6 8 8 9 12 15 14 13 15 14 13 13 13 13 12 12 11 10 10 9 9 9 9 9 8 8 8 8 7 7 7 7 7 7 7 7 7 7 7
4 3 5 6 6 6 7 5 5 5 5 4 5 6 5 4 4 5 5 5 3 6 3 5 4 5 3 3 4 4 6 5 5 5 5 4 5 4 5 5 5 5 5 5 5 5 7 6 7 9 10 12 14 15 15 15 14 14 14 13 13 13 12 12 11 10 10 10 10 10 9 9 9 9 8 8 8 8 7 8 7 7 7 8 8
6 6 5 6 6 6 5 4 4 5 5 5 5 5 5 5 4 5 5 6 5 5 4 5 5 5 4 4 4 3 4 5 5 6 5 5 4 4 4 5 4 6 6 6 5 5 6 7 6 8 9 9 11 16 16 16 15 15 14 14 14 13 13 13 12 11 12 12 11 11 11 10 10 9 10 9 8 8 9 8 8 8 8 8 8
1 2 4 3 3 4 2 4 5 5 5 5 4 3 4 5 6 5 5 4 5 6 6 4 4 5 5 5 4 3 4 4 5 4 5 6 5 5 5 4 5 6 6 5 5 5 5 7 8 8 7 7 7 10 15 16 16 16 16 15 15 14 13 13 12 12 12 12 11 11 11 11 11 10 11 10 9 10 10 9 8 9 9 8 8
0 1 2 1 1 0 1 1 1 2 2 2 2 2 3 4 5 4 3 5 3 4 5 3 4 4 4 4 3 4 5 5 5 6 5 5 6 6 3 6 5 6 6 4 5 5 6 6 5 4 5 6 6 8 12 15 16 16 16 16 16 15 15 14 13 13 13 13 13 12 11 12 12 12 11 11 10 11 11 10 10 9 9 9 9
3 2 2 2 1 1 1 2 2 2 2 4 4 4 4 3 4 2 2 2 2 1 2 2 1 2 4 4 5 6 7 6 4 5 4 5 6 4 6 6 6 7 4 5 6 6 5 5 5 5 5 6 8 7 9 13 13 14 17 17 17 17 16 16 15 14 14 15 14 13 13 13 13 13 12 12 11 12 11 10 10 10 10 9 10
5 4 5 4 4 3 3 3 2 1 1 2 2 2 1 0 0 1 3 3 3 2 0 2 1 5 3 5 7 5 6 4 6 6 7 7 3 5 6 7 7 6 6 5 6 6 5 5 6 6 6 5 7 9 10 10 10 11 17 18 18 18 18 17 17 15 15 16 15 14 14 14 14 14 13 13 13 13 13 12 12 11 11 10 10
5 4 5 4 4 4 4 2 2 1 1 1 2 1 0 0 0 1 0 2 3 2 2 2 1 4 6 6 5 5 6 6 7 9 8 5 6 7 8 7 8 7 5 6 6 5 6 6 6 6 6 6 6 6 7 8 9 10 15 18 19 19 19 19 18 17 16 16 15 15 15 15 16 15 14 14 14 14 13 13 13 12 12 11 11
7 6 5 5 4 4 3 1 1 1 0 0 0 0 0 2 2 3 2 0 2 0 4 6 4 1 1 3 6 6 5 3 5 6 6 6 6 7 8 7 10 7 6 5 6 6 6 5 6 6 6 6 6 6 6 7 8 9 10 15 17 19 20 20 20 18 18 18 18 17 16 16 16 15 15 15 15 15 14 14 14 13 13 12 12
9 8 7 7 6 5 3 3 2 1 0 0 0 2 0 0 1 2 1 4 2 3 4 4 3 2 6 3 3 1 9 4 4 5 6 9 8 10 7 8 9 6 4 7 8 6 6 5 7 7 7 6 6 6 7 6 8 10 11 11 13 17 20 21 21 20 20 19 19 18 18 17 17 17 16 16 16 15 15 15 14 14 14 13 13
9 9 8 8 6 7 6 4 3 2 1 0 1 2 2 2 3 3 3 4 5 3 1 3 5 5 3 0 4 2 5 6 5 6 1 2 5 7 5 6 7 6 5 7 5 6 6 6 8 6 7 6 6 7 7 7 7 6 9 11 13 13 14 17 20 22 21 21 21 19 18 18 19 18 17 17 17 16 16 15 15 15 15 14 14
10 10 10 8 8 7 6 6 5 5 2 1 1 1 1 1 2 3 3 4 5 4 3 2 6 6 5 3 2 6 5 4 5 10 3 4 3 2 5 6 4 4 5 6 7 7 5 8 7 7 7 7 7 7 7 7 7 7 7 9 14 14 14 16 18 20 22 22 21 21 19 19 19 19 18 18 18 17 17 16 16 16 15 15 15
11 10 10 10 9 9 8 7 6 6 3 3 3 3 3 2 1 1 3 2 1 4 6 4 1 4 6 8 7 3 1 4 8 5 13 4 1 3 5 5 5 5 7 9 8 7 7 7 7 8 8 7 7 8 7 8 9 9 12 14 17 18 18 16 16 18 20 22 23 22 21 21 20 21 20 19 19 18 18 17 17 17 16 16 16
11 11 11 11 10 10 9 8 8 7 6 6 5 4 4 3 1 1 1 2 3 4 5 4 5 3 4 6 7 7 4 4 4 7 8 12 13 3 4 6 5 7 8 9 9 9 9 7 9 9 8 7 7 7 8 8 8 9 10 17 20 21 20 19 17 18 19 20 21 23 23 22 21 20 21 20 19 19 19 19 18 18 17 17 17
10 10 10 11 10 9 9 10 9 9 7 7 6 5 5 5 6 4 2 3 2 3 2 5 4 5 4 3 3 5 5 5 5 2 6 9 15 9 10 3 3 5 7 8 9 8 9 10 9 8 7 8 8 9 8 8 8 9 10 17 20 22 23 23 21 20 20 20 21 20 22 24 23 22 21 20 20 20 20 19 19 19 18 18 18
10 11 12 12 11 11 10 10 9 8 7 7 6 7 6 5 5 5 4 4 3 2 3 4 4 5 4 4 4 3 2 3 3 5 6 8 14 12 9 10 14 6 6 7 10 10 10 10 8 7 8 9 9 9 9 9 10 9 11 17 19 21 24 23 24 22 21 20 18 19 20 22 25 23 22 22 21 21 20 20 20 20 20 19 19
7 8 9 9 9 9 9 9 8 8 9 9 8 6 6 5 5 4 4 4 5 4 3 4 4 5 5 4 5 6 6 6 5 4 6 6 6 10 7 8 9 14 5 7 8 9 9 7 8 8 9 9 9 8 9 10 11 11 14 15 18 20 22 23 23 22 22 21 22 20 19 19 21 24 24 24 23 22 22 21 22 21 21 21 21
8 8 9 10 8 8 7 8 9 9 9 7 7 7 6 5 6 5 4 4 3 3 3 4 4 4 4 5 5 5 6 6 6 5 5 7 7 12 10 9 10 9 5 6 6 7 8 9 9 10 10 10 9 9 9 10 11 18 16 17 18 21 22 24 24 23 24 24 22 21 20 20 20 20 23 24 23 23 23 23 22 22 21 22 22
10 11 11 11 8 9 9 9 8 8 7 8 8 8 8 7 7 7 6 6 5 4 4 4 4 4 6 5 5 5 6 5 5 6 6 6 6 10 9 6 12 13 6 3 6 3 8 8 8 9 9 10 9 8 9 10 10 14 18 14 20 20 21 22 24 25 24 24 23 23 22 22 21 22 23 24 23 23 22 22 22 23 22 22 22
6 7 6 7 7 6 6 7 6 5 6 6 7 7 7 7 6 7 7 6 6 5 4 4 4 4 4 5 6 6 6 5 6 5 6 5 7 8 9 7 9 13 8 4 2 5 5 4 7 9 9 9 9 9 9 10 11 16 19 15 13 19 20 21 23 24 24 23 23 23 23 22 23 23 23 25 24 24 23 23 22 22 23 22 22
2 2 4 5 6 7 7 8 9 9 9 9 7 7 6 6 6 6 6 5 6 6 5 5 6 5 5 5 6 6 6 6 6 6 5 6 7 7 6 11 11 10 11 8 8 9 12 3 7 6 9 8 9 9 10 9 13 18 16 13 12 19 20 23 24 25 25 24 24 24 24 24 23 25 25 23 24 24 24 24 23 22 22 22 22
4 5 6 5 7 8 8 8 8 9 9 9 10 9 9 8 7 6 7 5 7 8 6 5 5 5 5 5 4 6 6 7 6 6 6 6 6 5 5 7 9 14 10 12 10 13 4 7 3 7 7 8 9 9 11 13 11 15 16 11 11 12 18 23 25 26 26 25 24 23 24 24 24 24 24 23 22 21 21 21 21 21 19 20 21
4 4 5 5 5 5 6 7 7 7 7 7 7 7 8 8 8 8 8 6 5 6 6 6 6 5 4 4 4 6 6 6 6 6 7 6 6 6 6 7 7 9 11 11 14 11 6 5 7 4 7 8 8 8 9 9 11 12 10 11 11 11 13 21 25 26 27 27 25 24 23 24 24 24 24 23 22 22 22 22 21 20 21 21 22
4 4 3 4 3 3 3 4 4 4 4 4 4 5 5 7 7 7 6 6 7 7 5 4 6 5 5 5 4 6 6 5 6 6 6 7 7 6 6 7 6 10 10 11 16 9 10 3 5 3 3 7 7 8 8 9 11 13 10 10 10 11 13 19 22 24 25 26 25 24 24 24 24 24 24 24 22 23 24 23 22 22 22 22 23
8 9 9 9 9 8 5 5 4 4 3 3 3 3 3 4 4 5 6 5 7 8 8 5 5 4 5 5 6 6 6 6 6 6 6 6 6 7 7 6 7 8 10 9 13 13 3 11 5 5 6 5 5 6 6 6 8 11 10 9 10 13 17 15 19 20 23 24 23 23 24 24 24 25 24 25 24 24 25 24 23 23 24 24 24
4 5 6 6 7 8 9 9 10 10 9 7 4 4 3 3 3 5 5 3 4 5 7 7 7 5 5 6 6 6 6 4 6 6 7 6 6 6 6 7 7 7 7 9 12 19 5 7 10 4 6 6 7 7 7 6 7 11 8 9 10 13 11 11 17 20 21 23 23 24 23 23 24 23 24 25 23 25 24 25 24 24 25 25 25
2 3 3 4 4 4 5 6 6 7 8 10 9 8 8 9 8 6 5 5 6 6 5 8 6 6 7 7 8 7 5 5 6 6 6 7 6 6 6 6 7 7 6 8 12 16 12 5 9 8 6 4 6 6 9 8 8 7 9 9 9 9 10 10 10 17 20 22 23 24 24 24 24 25 25 26 25 25 25 26 26 25 25 26 26
2 4 4 4 4 4 4 6 5 6 6 6 7 6 8 9 10 8 8 9 9 9 7 7 8 7 7 8 9 9 7 6 6 6 7 7 7 7 7 6 7 8 6 7 11 12 18 7 6 6 6 3 8 3 7 9 9 7 9 10 8 8 10 10 10 10 18 21 23 24 25 26 25 25 28 25 26 26 27 27 26 25 24 25 25
4 4 5 5 6 6 6 7 7 7 8 8 7 7 8 8 8 9 7 7 8 9 10 10 9 7 7 8 9 8 7 8 8 7 6 7 6 7 9 7 8 9 7 8 9 13 15 14 7 8 7 5 8 8 6 8 8 8 9 9 8 8 8 10 9 8 11 19 23 24 25 26 26 25 25 26 24 25 26 27 27 25 24 24 24
6 6 5 6 6 6 7 8 7 8 8 8 8 7 8 8 9 10 9 9 8 8 8 9 10 9 9 9 9 8 6 8 9 9 8 7 7 7 8 8 8 9 9 7 9 11 12 14 11 7 7 7 8 7 6 7 8 7 8 9 6 8 8 7 9 10 10 17 21 23 24 24 25 25 24 25 26 26 28 26 26 25 24 23 23
5 5 6 5 6 6 7 8 8 8 9 9 9 9 8 7 7 9 9 9 9 10 9 10 9 9 9 10 11 9 7 8 9 9 8 9 8 7 8 8 8 8 8 7 9 9 11 14 14 8 5 8 7 8 5 8 7 7 7 9 9 9 9 8 7 9 10 14 17 20 20 22 23 26 25 24 26 27 30 26 25 24 23 24 24
7 5 6 6 6 7 8 8 8 9 9 9 9 10 9 8 8 8 8 8 9 9 10 10 10 9 9 10 10 10 9 9 10 10 9 10 9 9 9 9 9 8 9 9 8 10 11 13 13 13 7 8 9 7 6 7 9 9 8 8 6 6 8 8 9 8 6 7 8 10 14 18 22 26 26 23 25 26 25 25 25 25 25 25 25
6 6 6 6 6 6 8 8 8 9 10 9 9 9 9 8 9 9 10 10 10 10 10 11 11 11 11 10 11 10 10 10 11 11 10 10 9 11 10 10 9 8 9 9 9 9 10 12 12 11 11 8 8 11 7 7 9 10 11 9 9 6 7 9 11 7 6 8 10 14 13 12 15 15 22 26 25 28 27 25 25 26 25 25 24
5 6 6 7 7 5 7 7 8 7 8 10 9 8 8 8 9 9 10 11 11 11 11 11 11 12 12 12 12 12 12 11 11 11 10 11 9 10 9 9 9 9 9 9 9 9 10 11 11 12 10 9 7 7 5 2 6 8 7 8 12 11 9 8 10 9 7 8 9 9 10 11 14 18 20 22 26 26 26 24 25 25 26 25 25
6 6 7 7 9 9 9 8 9 8 9 9 8 6 6 8 7 8 10 10 11 11 12 12 12 12 12 12 12 12 14 16 17 16 15 14 11 11 11 9 9 9 10 9 9 9 9 10 12 10 11 11 10 9 8 7 9 12 7 6 10 12 9 7 8 9 9 9 8 8 8 9 9 9 10 12 15 22 23 25 21 27 27 26 24
8 8 8 8 8 9 11 11 10 9 9 8 10 18 17 12 11 10 10 11 11 12 13 13 14 13 13 12 12 18 21 21 22 21 22 23 22 16 14 12 10 10 10 10 10 10 10 11 12 12 12 12 11 10 10 9 8 7 9 7 11 12 7 7 10 8 6 8 7 10 10 7 8 9 10 12 13 14 12 15 16 17 22 23 23
10 10 9 11 10 9 10 11 12 11 10 9 19 20 21 23 15 11 12 12 12 12 12 13 14 14 13 12 12 13 15 18 18 23 22 24 24 25 25 23 18 14 12 13 12 11 11 11 11 12 12 14 15 11 10 9 8 8 10 9 10 9 10 9 13 8 7 9 9 9 10 8 9 12 12 13 14 12 13 16 21 23 21 22 24
10 9 10 10 10 10 10 11 12 12 12 16 22 22 23 24 22 15 12 12 12 12 12 13 12 12 12 12 11 10 10 13 13 14 17 20 23 24 25 25 26 28 25 18 14 13 12 12 13 14 12 14 14 12 9 8 9 8 8 9 10 10 11 11 11 14 3 11 8 9 13 8 9 12 13 13 13 12 13 14 18 21 22 24 24
9 10 11 11 11 10 10 11 12 12 12 19 22 24 24 25 25 21 11 11 12 12 13 12 13 12 11 12 12 11 11 19 16 13 14 15 17 22 24 26 26 27 27 28 27 19 13 14 13 15 14 13 15 14 11 10 7 9 6 9 9 11 11 12 12 13 3 8 8 10 13 9 9 11 14 14 12 11 12 16 19 20 23 24 24
9 10 9 11 10 9 9 10 12 13 13 17 23 25 24 25 26 22 13 13 12 13 14 14 13 14 14 12 13 13 12 11 11 14 14 15 15 15 14 14 14 16 21 24 26 28 23 17 15 17 17 14 15 14 14 8 8 9 9 10 9 10 11 13 14 13 4 9 11 8 10 9 9 10 14 12 9 9 11 15 21 22 23 25 25
10 10 10 10 10 8 9 9 11 13 13 21 23 25 24 25 26 23 14 12 11 12 13 13 14 14 14 14 14 16 13 14 12 17 16 15 15 15 15 16 15 15 15 15 15 14 14 14 16 17 18 17 16 17 16 11 11 11 10 11 10 10 10 10 11 10 8 7 9 8 14 12 5 8 13 12 6 8 11 13 20 23 25 26 26
8 7 8 7 9 10 9 10 12 14 13 22 23 24 25 25 27 16 14 13 12 12 13 11 11 12 13 13 13 14 16 15 21 30 27 21 19 19 19 17 16 15 16 15 21 20 18 16 15 16 16 16 18 17 15 13 11 10 10 9 7 7 8 10 11 8 11 6 11 10 10 12 5 10 12 7 5 9 11 9 15 25 26 26 27
9 9 9 9 8 10 12 10 11 14 14 18 22 25 25 26 21 13 14 13 13 13 13 12 13 12 12 12 12 14 14 16 22 27 28 26 18 19 19 18 17 16 17 15 21 27 29 30 31 31 31 32 32 31 30 28 18 12 10 9 12 10 11 12 12 11 11 8 7 11 11 13 7 8 9 3 7 10 10 9 10 19 25 26 27
11 9 9 10 9 7 10 11 10 13 15 18 24 25 26 26 22 15 13 13 14 14 15 15 13 13 15 23 21 17 17 17 23 27 28 23 17 18 18 18 18 18 17 15 12 14 23 28 32 34 33 32 32 34 33 32 30 20 13 15 13 10 12 11 14 12 10 9 8 11 9 13 9 5 5 1 3 5 6 7 8 8 16 21 27
10 9 8 9 9 8 7 11 18 17 14 17 23 24 26 26 20 14 13 12 14 14 13 14 13 13 15 16 24 24 22 23 30 28 29 23 17 17 16 17 18 20 17 14 14 16 16 16 15 16 18 23 22 19 19 32 30 23 16 15 12 12 12 13 13 10 11 11 10 12 10 10 13 4 6 1 7 5 4 5 7 8 9 9 11
Wind_Direction
182 186 161 180 171 170 172 193 192 184 160 175 175 187 187 177 178 180 178 205 248 286 317 305 318 310 286 288 279 280 277 272 261 259 267 264 278 280 285 293 285 283 277 274 231 221 229 223 227 226 227 225 219 223 234 231 215 212 207 197 205 188 194 199 206 200 224 209 206 206 192 197 185 199 183 203 210 216 224 220 225 217 224 248 258
185 176 173 183 178 173 177 188 203 207 177 176 191 180 191 185 183 186 187 207 235 266 324 305 309 302 295 277 279 260 256 242 251 246 249 266 264 270 280 285 290 280 280 288 245 224 233 227 234 233 225 233 233 225 231 241 229 219 215 224 206 203 192 192 213 225 224 226 213 201 205 195 178 193 188 188 200 204 211 216 220 224 231 236 233
180 178 191 182 182 180 188 182 199 212 214 202 172 187 178 189 193 194 195 197 220 230 304 298 295 301 282 277 267 280 268 256 259 262 260 252 260 262 272 284 286 291 298 289 293 262 228 234 231 238 233 233 235 234 231 231 244 235 228 223 225 208 198 200 213 225 229 228 228 213 207 196 192 187 207 202 206 216 215 220 222 221 221 216 227
179 177 182 176 181 195 187 181 208 201 211 192 174 174 174 163 155 173 174 174 235 306 346 303 290 283 298 276 274 271 270 265 258 259 261 268 260 266 271 276 288 294 293 299 281 281 241 234 235 238 231 231 232 232 232 232 238 247 238 233 232 230 219 219 218 228 231 237 233 220 217 208 203 187 210 221 222 223 219 219 218 223 223 221 220
185 180 185 187 180 176 181 205 215 199 193 189 155 142 129 139 152 129 127 124 247 283 317 293 282 283 302 280 291 275 271 283 267 275 267 269 276 276 283 286 294 300 300 293 290 291 282 239 234 235 229 228 225 227 231 233 231 238 238 235 233 234 231 234 229 229 238 237 237 226 224 225 219 205 223 226 226 226 227 223 226 231 231 233 229
173 185 183 193 194 186 188 204 209 193 174 163 172 163 164 168 185 153 193 197 223 239 249 271 263 277 277 276 290 272 289 281 269 261 273 272 275 289 284 293 292 288 290 292 292 291 284 290 259 242 236 232 228 225 230 232 225 232 234 234 231 233 233 233 236 235 234 236 236 231 228 235 230 232 236 235 231 231 232 230 229 232 231 231 231
189 187 186 172 173 197 204 213 188 171 176 187 171 171 173 189 163 189 190 216 229 242 224 241 250 260 266 293 284 295 298 272 282 275 262 257 277 270 273 274 273 278 279 285 294 288 294 284 275 274 249 241 234 227 231 230 225 227 232 231 231 230 230 231 233 235 235 236 234 234 234 235 238 239 240 239 239 241 240 239 237 236 237 236 232
187 164 165 182 187 197 214 194 178 171 183 167 165 184 188 178 190 176 188 235 221 250 216 241 243 256 268 282 279 293 287 287 278 274 266 280 267 268 267 266 270 271 270 265 265 275 281 286 293 276 263 257 241 232 232 232 224 222 226 233 231 228 228 230 229 227 231 230 230 234 234 234 239 238 239 239 243 244 243 245 243 241 237 235 234
183 184 188 192 199 206 207 181 165 181 177 177 192 186 173 184 194 205 198 215 210 242 242 231 240 243 258 261 249 249 270 281 279 271 293 273 269 264 266 265 267 270 265 263 261 274 279 278 272 272 277 279 285 244 232 233 229 225 223 230 235 232 227 230 230 227 231 227 225 227 232 233 235 236 235 237 240 243 246 242 243 243 240 241 239
242 175 207 200 200 211 167 175 172 176 183 179 196 153 180 181 206 207 204 200 212 222 237 234 238 250 258 260 273 275 256 254 253 265 266 272 267 261 256 273 275 262 263 266 272 273 269 267 267 270 278 285 285 263 233 234 234 230 228 228 232 233 229 230 230 230 231 230 228 225 227 229 232 234 236 235 234 237 241 239 242 244 244 242 244
98 128 176 160 185 137 139 122 131 159 157 160 156 171 188 201 211 213 210 224 227 224 236 214 239 255 263 275 298 263 255 249 250 257 259 248 256 258 269 263 256 257 261 269 270 262 261 263 269 272 273 276 274 263 246 236 236 234 232 231 231 231 230 228 229 230 230 232 229 227 228 232 232 232 234 235 232 235 236 237 238 243 246 245 244
43 42 45 47 41 41 65 84 111 133 156 176 203 203 216 206 244 235 234 268 289 223 189 181 257 284 284 290 252 244 244 238 247 251 249 246 250 275 267 257 246 253 252 254 257 257 257 263 265 258 258 265 264 266 262 249 242 236 235 234 233 231 231 231 230 227 228 232 231 230 231 235 236 234 234 235 235 236 236 234 235 235 238 238 241
44 51 55 58 54 57 59 50 53 60 26 352 9 345 7 358 161 168 211 240 265 197 104 113 355 304 288 263 277 251 249 239 245 245 236 232 229 246 251 254 253 249 244 242 246 251 254 256 253 254 253 252 261 261 261 267 268 249 237 235 235 235 233 231 231 227 227 231 230 228 229 234 237 237 236 237 237 237 236 235 234 232 231 233 234
31 46 54 65 66 65 67 88 90 82 84 62 51 55 83 82 79 327 174 237 270 150 198 132 331 239 289 321 318 299 249 221 233 237 232 224 214 216 233 239 252 244 249 246 252 249 248 246 248 253 251 249 250 255 261 263 264 262 244 237 236 236 235 233 231 231 231 232 231 230 231 232 235 236 235 236 237 237 235 238 236 233 232 231 231
16 25 41 33 50 62 63 84 90 107 37 3 83 6 145 187 175 218 274 18 287 152 190 199 251 71 95 353 303 339 332 327 271 256 238 226 216 225 228 229 240 235 231 241 250 246 244 243 249 246 246 243 246 250 254 256 255 258 255 246 243 240 238 235 234 232 232 231 228 231 234 234 236 235 235 234 234 235 234 232 236 235 233 230 229
22 21 22 23 28 42 40 51 68 88 138 263 230 262 148 127 200 249 283 289 250 260 196 219 205 131 295 231 259 17 315 294 298 288 230 222 213 228 222 227 234 237 219 233 236 239 246 239 243 240 242 244 244 246 250 251 260 261 258 256 254 249 244 239 236 234 233 232 228 226 231 237 236 236 237 235 234 234 233 232 232 235 235 233 230
25 25 26 24 22 19 22 23 34 21 67 53 284 252 222 203 198 208 202 231 271 266 208 206 230 240 209 340 310 294 232 271 340 281 340 290 252 244 252 241 244 236 232 247 251 239 236 240 242 242 243 242 242 241 242 246 250 250 254 252 249 253 260 261 245 236 236 235 233 227 226 228 232 234 233 236 236 236 234 234 234 234 234 233 230
27 25 25 22 22 18 17 20 17 4 8 311 290 335 299 253 220 203 232 226 246 287 294 198 231 242 260 269 221 274 307 272 351 291 324 223 264 279 247 252 263 255 247 257 251 247 234 243 240 244 239 237 237 237 235 237 236 239 238 245 242 243 246 250 255 251 238 237 236 233 230 227 230 231 231 232 235 235 234 235 234 233 233 231 231
22 24 20 20 20 18 15 16 17 11 0 7 344 315 294 261 269 190 228 250 201 257 263 268 179 252 246 253 268 235 179 313 272 334 298 317 290 266 261 250 236 231 240 242 243 243 240 232 241 239 238 233 236 236 235 236 232 232 235 237 238 237 238 241 246 251 251 243 238 236 234 232 232 231 230 231 232 233 233 233 234 235 233 233 231
21 19 18 16 15 15 13 15 20 9 2 358 336 325 328 328 335 244 241 222 214 225 262 267 255 269 198 242 250 261 245 261 246 251 278 296 289 299 249 259 243 236 234 244 242 236 244 233 236 236 234 233 230 234 236 234 233 235 238 237 236 237 236 238 239 242 248 257 261 243 234 233 231 230 232 231 231 231 231 230 233 234 233 234 232
24 21 18 16 15 11 11 14 15 8 2 1 354 349 343 332 334 341 313 296 232 243 266 269 264 261 279 269 243 254 256 236 248 222 256 278 280 282 285 314 259 241 248 238 245 241 234 237 233 235 234 237 226 228 231 234 235 234 237 237 237 237 237 236 236 238 242 247 253 261 251 233 234 230 229 232 232 231 230 229 229 231 232 233 234
19 21 18 13 11 9 11 13 9 6 9 7 3 4 358 349 336 328 331 321 308 292 249 267 273 279 257 281 278 288 282 274 222 231 254 225 265 278 286 292 287 261 216 239 241 238 236 236 235 227 232 235 230 225 226 228 231 233 237 237 235 236 237 237 236 234 235 239 244 249 259 250 234 234 227 228 229 231 230 230 229 230 230 231 233
19 23 26 16 12 13 10 5 5 7 9 9 6 358 355 351 346 348 343 331 315 328 319 294 287 289 284 262 259 254 256 258 254 222 231 260 274 271 271 250 253 281 244 240 239 243 236 229 229 230 232 233 235 226 225 229 231 232 233 233 234 235 237 238 237 236 233 233 237 240 243 254 250 236 232 228 226 227 229 230 230 230 231 231 231
25 22 20 14 14 13 12 12 12 6 6 354 1 2 357 1 5 4 344 328 325 326 315 307 297 290 287 275 263 259 264 261 267 255 248 260 263 280 285 298 281 252 264 274 247 241 240 227 221 226 227 231 231 225 229 230 233 231 234 234 230 233 236 237 237 238 235 233 233 234 236 240 249 245 235 233 228 225 225 227 228 229 230 231 231
13 13 7 8 10 13 13 12 9 7 359 3 0 3 5 6 5 357 353 351 340 330 316 291 288 287 279 285 278 276 264 264 266 258 262 266 268 279 280 283 280 291 281 235 271 268 231 230 222 221 229 228 231 225 224 227 232 232 231 236 231 234 235 238 239 237 236 234 233 232 232 233 238 238 232 230 229 227 223 223 226 228 230 231 232
11 12 349 353 7 5 3 6 6 4 8 7 7 4 4 4 2 2 350 341 342 339 314 300 302 280 283 290 288 279 275 274 265 267 263 266 266 262 282 272 271 284 288 283 258 283 262 216 224 223 223 228 230 226 228 227 233 236 230 230 229 230 231 233 236 238 238 237 233 232 231 230 232 232 229 228 226 226 224 224 223 224 228 230 232
21 346 356 5 6 7 8 10 4 2 3 5 5 5 6 0 5 354 349 351 342 336 330 328 316 307 302 281 283 290 283 277 274 264 252 244 249 260 261 283 283 276 285 278 282 226 264 263 233 225 229 226 226 227 226 225 231 233 232 230 235 230 229 232 234 236 238 238 236 231 230 229 227 228 225 224 224 224 226 225 224 224 224 228 230
359 2 1 8 5 2 2 3 360 1 0 358 357 358 355 359 355 360 351 349 346 340 332 332 314 305 295 293 297 280 281 281 276 271 264 254 252 253 245 258 274 285 279 282 279 277 197 245 270 226 225 224 231 225 229 230 234 234 229 228 228 232 227 231 234 235 235 235 235 232 228 228 226 224 222 220 219 221 223 226 227 225 226 227 228
1 1 356 356 358 360 357 351 352 352 352 352 349 349 348 351 351 346 348 344 340 331 325 328 310 307 306 294 279 281 280 281 283 275 269 272 260 252 236 244 246 263 280 281 277 276 284 192 263 268 218 228 232 232 234 231 235 229 230 227 228 232 227 227 231 234 235 234 233 232 228 226 225 222 220 219 217 217 218 221 226 227 225 226 229
10 360 355 347 339 336 334 328 322 329 330 328 331 332 341 343 338 334 331 338 336 328 324 312 312 315 306 307 293 286 276 278 274 273 272 266 267 259 251 245 232 249 261 271 279 267 279 252 233 267 253 238 236 242 230 238 235 232 234 231 228 232 229 229 231 234 237 238 236 233 227 224 225 224 221 219 217 217 218 218 220 224 225 225 225
1 359 358 356 355 352 352 342 330 321 295 301 294 301 297 307 309 307 318 335 334 327 321 325 306 306 301 302 297 285 282 280 281 282 275 267 259 258 258 249 247 241 257 263 276 270 211 277 243 245 249 261 247 257 262 253 247 236 236 234 232 233 233 233 233 235 238 241 241 237 232 225 223 225 223 221 218 215 215 217 219 220 224 224 224
345 348 352 345 343 343 340 341 338 337 337 331 326 318 305 295 294 303 298 306 308 306 309 316 318 317 311 301 287 281 285 282 279 276 277 274 265 264 255 252 252 244 248 258 258 275 244 256 276 256 250 253 254 253 257 262 253 244 244 240 238 236 236 241 237 232 233 237 241 241 238 230 222 218 220 218 215 215 216 218 219 221 223 224 224
303 313 311 305 300 305 310 313 316 317 323 324 328 333 333 329 328 323 316 320 316 308 307 307 307 313 313 308 303 294 285 282 274 274 271 267 269 264 257 256 258 251 240 252 263 276 277 207 266 269 262 238 270 221 250 252 258 251 241 239 234 231 233 235 236 231 230 231 235 239 240 236 228 221 219 220 221 219 220 220 220 222 222 223 224
292 296 297 299 294 293 299 297 298 302 301 303 308 317 318 321 320 324 326 326 322 315 314 305 305 306 304 304 299 300 304 291 284 277 270 277 272 272 270 252 254 260 233 246 264 268 280 270 258 283 286 211 261 199 229 251 252 251 248 245 234 228 234 235 235 235 226 227 229 232 236 240 237 227 223 219 219 221 221 222 222 220 221 221 222
303 293 292 296 297 301 301 298 301 302 302 303 305 310 309 310 309 308 310 311 310 310 312 306 302 300 297 291 288 289 298 298 291 280 274 268 265 263 266 260 259 259 249 236 256 271 275 279 260 268 268 253 241 257 232 244 248 243 250 251 240 237 234 236 239 244 230 228 230 230 233 235 239 238 229 223 218 219 218 220 221 220 218 219 219
292 291 294 291 295 294 292 294 293 293 298 296 297 298 297 299 301 302 305 307 300 295 290 292 296 296 290 291 287 284 283 284 284 286 280 269 263 260 261 261 255 259 256 243 243 258 274 282 274 255 264 265 264 258 256 255 261 258 248 258 250 245 245 235 235 240 235 233 233 233 233 235 237 238 233 228 224 223 222 216 219 221 218 216 217
276 283 284 276 281 282 283 284 290 290 290 292 294 293 291 287 288 292 296 297 296 294 291 287 282 282 281 277 281 285 279 275 277 277 278 278 269 260 258 261 257 256 261 250 252 253 267 272 279 267 240 257 255 264 236 255 261 253 253 251 249 248 250 243 243 241 242 237 238 236 235 234 235 236 235 230 227 225 223 214 216 218 218 217 215
295 288 283 290 282 284 286 285 284 286 286 285 285 288 289 289 284 283 284 282 282 283 285 285 283 278 275 275 275 274 271 266 270 273 271 272 275 270 265 263 259 257 261 259 253 258 261 268 274 284 259 256 269 253 241 228 253 263 262 255 256 248 252 258 243 240 231 229 235 239 238 237 236 236 236 232 226 221 218 214 213 215 215 216 215
289 293 289 285 285 279 282 285 284 285 287 284 283 284 286 286 283 283 282 281 279 279 278 279 281 280 276 274 274 271 268 264 267 268 272 269 266 265 264 267 266 264 263 262 260 259 261 268 273 269 275 258 244 267 249 220 235 245 257 268 260 235 235 236 253 240 218 231 232 230 230 229 233 235 237 236 229 227 222 213 212 213 214 215 215
301 301 304 304 300 294 284 283 282 281 282 285 285 282 279 277 278 274 274 277 280 278 277 275 276 276 277 276 275 274 270 269 266 268 264 267 264 266 262 262 262 263 261 263 265 261 263 267 267 278 271 273 260 244 273 223 254 263 240 241 257 257 243 230 237 242 228 225 233 234 235 239 240 238 238 239 237 230 226 222 218 218 216 215 215
316 313 312 310 310 309 304 298 299 296 291 290 292 294 287 283 270 270 275 276 277 281 281 279 276 275 273 272 272 272 271 269 263 259 259 255 263 272 266 259 261 259 261 261 260 260 262 263 270 269 273 272 263 264 250 228 232 248 252 197 248 253 254 251 246 228 226 225 232 234 232 220 232 235 235 236 234 231 228 223 222 220 217 215 213
319 317 315 313 309 308 310 310 307 303 298 296 303 307 307 303 303 302 296 291 287 283 282 282 279 275 272 272 270 270 272 272 272 269 268 267 262 254 261 268 264 260 258 259 260 257 258 262 263 268 272 268 266 255 254 245 242 250 256 233 246 258 256 253 263 239 205 219 229 237 235 218 214 233 227 234 235 228 228 224 224 220 217 212 209
320 318 318 314 312 314 314 312 310 306 302 302 311 313 312 312 311 305 298 294 289 286 282 280 281 282 278 273 272 272 272 272 273 273 271 270 268 267 264 258 253 251 261 260 255 252 256 255 259 262 262 269 268 261 253 259 245 231 240 238 244 255 253 250 261 259 179 187 218 240 248 211 200 226 228 227 229 224 224 229 224 221 214 210 210
317 316 313 310 313 318 314 311 306 304 304 308 314 315 313 312 308 303 299 294 292 288 286 282 280 280 281 280 276 273 269 271 274 275 272 268 269 268 266 264 264 261 253 249 255 258 248 250 253 252 256 257 266 265 260 247 251 246 235 240 238 240 248 246 249 258 197 184 193 223 246 220 199 225 235 230 227 223 223 227 223 220 214 212 209
314 313 314 316 313 317 315 311 308 307 305 311 315 313 311 309 306 304 295 288 287 286 285 282 282 282 283 283 282 275 272 278 280 279 279 279 274 272 271 270 265 262 263 260 254 251 253 252 249 253 245 252 257 259 251 244 240 250 232 237 233 239 241 246 247 255 215 183 186 224 244 227 190 219 238 233 226 220 225 227 223 218 218 215 211
313 310 311 310 311 313 314 313 308 306 305 312 312 310 310 308 305 303 293 289 284 282 284 285 286 285 284 285 286 284 282 278 274 277 278 277 278 276 272 266 264 261 259 258 259 256 254 253 250 251 251 244 249 255 255 240 236 241 236 242 229 236 237 241 246 253 224 174 194 210 252 237 195 213 238 243 222 220 225 222 220 219 219 219 216
313 312 313 314 312 314 314 313 307 302 303 309 310 310 308 305 303 303 295 290 286 284 282 281 283 283 284 283 282 283 284 281 276 280 280 279 277 274 271 268 264 263 260 258 253 252 252 250 252 253 256 254 252 251 256 247 234 241 237 240 239 239 243 251 257 253 247 194 209 203 247 254 172 207 239 241 218 223 230 224 219 219 220 219 219
301 302 302 304 307 311 312 311 305 300 300 307 308 307 305 304 304 301 295 290 286 281 278 277 278 281 284 285 288 288 288 287 287 287 286 285 283 281 278 275 272 268 264 255 255 252 249 248 249 251 254 255 254 252 251 249 243 242 249 254 257 253 249 247 249 244 245 201 199 210 242 254 159 205 239 228 185 225 229 224 219 221 220 219 219
305 307 305 304 308 307 306 304 301 297 298 306 308 306 305 304 304 298 292 286 284 285 284 284 281 275 269 266 267 273 275 276 282 285 286 284 281 277 274 273 271 268 266 263 260 262 263 260 258 254 254 254 255 256 254 250 242 231 241 246 243 235 239 246 249 246 244 221 201 204 229 251 213 198 242 195 193 223 227 214 216 222 221 219 220
302 303 304 302 299 297 298 298 297 297 298 303 305 304 303 302 300 297 295 292 289 290 293 292 294 294 294 297 297 297 296 293 294 291 288 286 277 272 271 273 275 272 269 268 271 270 265 265 264 262 262 260 256 256 255 252 249 240 228 237 238 231 236 233 245 243 251 237 212 191 216 237 243 190 225 292 239 240 229 221 214 219 223 226 225
291 298 298 297 294 290 285 287 297 297 294 297 302 301 300 299 299 292 289 287 289 291 295 294 293 293 294 296 294 292 289 289 290 289 287 285 280 279 277 273 270 267 267 273 269 266 262 258 257 258 259 259 258 256 256 255 251 245 233 234 234 230 232 234 238 246 256 246 224 175 212 235 238 191 196 218 244 236 197 202 208 206 207 211 222